Weather History for Newton, KS

Change the Weather History Date:

Monday, November 7, 2011

  Actual Average Record
Temperature  
Mean Temperature 46 °F -  
Max Temperature 51 °F 53 °F 77 °F (1999)
Min Temperature 41 °F 36 °F 24 °F (1997)
Degree Days  
Heating Degree Days 19    
Moisture  
Dew Point 38 °F    
Average Humidity 73    
Maximum Humidity 93    
Minimum Humidity 49    
Precipitation  
Precipitation 1.27 in - - ()
Sea Level Pressure  
Sea Level Pressure 30.00 in    
Wind  
Wind Speed 11 mph (NE)    
Max Wind Speed 25 mph    
Max Gust Speed 34 mph    
Visibility 6 miles    
Events Thunderstorm    
Averages and records for this station are not official NWS values.
T = Trace of Precipitation, MM = Missing Value Source: NWS Daily Summary

Daily Weather History Graph

Daily Weather History Graph

Search for Another Location

Airport:

Trip Planner

Search our weather history database for the weather conditions in past years. The results will help you decide how hot, cold, wet, or windy it might be!

Date:

Astronomy

Nov. 07, 2011 Rise Set
Actual Time 7:01 AM CST 5:24 PM CST
Civil Twilight 6:33 AM CST 5:51 PM CST
Nautical Twilight 6:01 AM CST 6:23 PM CST
Astronomical Twilight 5:31 AM CST 6:53 PM CST
Moon 3:34 PM CST (11/7) 4:06 AM CST (11/7)
Length of Visible Light 11h 18m
Length of Day
10h 22m
Waxing Gibbous, 92% of the Moon is Illuminated
Nov 7
Waxing Gibbous
Nov 10
Full
Nov 18
Last Quarter
Nov 25
New
Dec 2
First Quarter

Hourly Weather History & Observations

Time (CST) Temp. Windchill Dew Point Humidity Pressure Visibility Wind Dir Wind Speed Gust Speed Precip Events Conditions
12:15 AM 44.6 °F 39.7 °F 28.4 °F 53% 30.06 in 10.0 mi NE 9.2 mph - N/A   Clear
12:35 AM 44.6 °F 39.7 °F 28.4 °F 53% 30.05 in 10.0 mi NE 9.2 mph - N/A   Clear
12:55 AM 44.6 °F 39.7 °F 28.4 °F 53% 30.05 in 10.0 mi NE 9.2 mph - N/A   Clear
1:15 AM 44.6 °F 39.2 °F 28.4 °F 53% 30.05 in 10.0 mi NE 10.4 mph - N/A   Clear
1:35 AM 44.6 °F 39.2 °F 28.4 °F 53% 30.05 in 10.0 mi ENE 10.4 mph - N/A   Clear
1:55 AM 44.6 °F 39.7 °F 28.4 °F 53% 30.05 in 10.0 mi ENE 9.2 mph - N/A   Clear
2:15 AM 44.6 °F 40.2 °F 26.6 °F 49% 30.06 in 10.0 mi ENE 8.1 mph - N/A   Clear
2:35 AM 42.8 °F 37.5 °F 28.4 °F 57% 30.06 in 10.0 mi ENE 9.2 mph - N/A   Clear
2:55 AM 42.8 °F 37.5 °F 28.4 °F 57% 30.06 in 10.0 mi ENE 9.2 mph - N/A   Clear
3:15 AM 42.8 °F 37.5 °F 28.4 °F 57% 30.06 in 10.0 mi ENE 9.2 mph - N/A   Clear
3:35 AM 44.6 °F 39.2 °F 28.4 °F 53% 30.05 in 10.0 mi ENE 10.4 mph - N/A   Clear
3:55 AM 44.6 °F 39.7 °F 28.4 °F 53% 30.05 in 10.0 mi ENE 9.2 mph - N/A   Clear
4:15 AM 42.8 °F 38.0 °F 28.4 °F 57% 30.07 in 10.0 mi ENE 8.1 mph - N/A   Clear
4:35 AM 41.0 °F 35.8 °F 28.4 °F 61% 30.08 in 10.0 mi ENE 8.1 mph - N/A   Scattered Clouds
5:15 AM 42.8 °F 38.0 °F 28.4 °F 57% 30.07 in 10.0 mi ENE 8.1 mph - N/A   Mostly Cloudy
5:35 AM 42.8 °F 38.6 °F 28.4 °F 57% 30.08 in 10.0 mi ENE 6.9 mph - N/A   Overcast
5:55 AM 44.6 °F 39.2 °F 30.2 °F 57% 30.08 in 10.0 mi ENE 10.4 mph - N/A   Overcast
6:15 AM 44.6 °F 39.7 °F 30.2 °F 57% 30.08 in 10.0 mi ENE 9.2 mph - N/A   Overcast
6:35 AM 44.6 °F 39.7 °F 32.0 °F 61% 30.08 in 10.0 mi NE 9.2 mph - N/A   Overcast
6:55 AM 44.6 °F 40.2 °F 30.2 °F 57% 30.07 in 10.0 mi ENE 8.1 mph - N/A   Mostly Cloudy
7:15 AM 44.6 °F 39.2 °F 32.0 °F 61% 30.07 in 10.0 mi ENE 10.4 mph - N/A   Overcast
7:35 AM 44.6 °F 39.7 °F 33.8 °F 66% 30.07 in 10.0 mi ENE 9.2 mph - N/A   Overcast
7:55 AM 46.4 °F 41.9 °F 35.6 °F 66% 30.08 in 10.0 mi East 9.2 mph - N/A   Overcast
8:15 AM 46.4 °F 42.4 °F 37.4 °F 71% 30.09 in 10.0 mi ENE 8.1 mph - N/A   Overcast
8:35 AM 46.4 °F 42.4 °F 37.4 °F 71% 30.08 in 9.0 mi ENE 8.1 mph - N/A   Overcast
8:55 AM 48.2 °F - 39.2 °F 71% 30.07 in 9.0 mi ENE 11.5 mph - N/A   Overcast
9:15 AM 48.2 °F - 41.0 °F 76% 30.07 in 7.0 mi East 9.2 mph - N/A   Overcast
9:55 AM 50.0 °F - 44.6 °F 82% 30.06 in 5.0 mi ENE 10.4 mph 16.1 mph N/A   Overcast
10:15 AM 50.0 °F - 44.6 °F 82% 30.04 in 5.0 mi NE 11.5 mph - N/A   Overcast
10:35 AM 51.8 °F - 44.6 °F 76% 30.05 in 6.0 mi ENE 8.1 mph - N/A   Overcast
11:15 AM 51.8 °F - 46.4 °F 82% 30.04 in 4.0 mi ENE 9.2 mph - N/A   Overcast
11:35 AM 51.8 °F - 46.4 °F 82% 30.02 in 5.0 mi ENE 8.1 mph - N/A   Overcast
11:55 AM 51.8 °F - 46.4 °F 82% 30.00 in 3.0 mi ENE 10.4 mph - 0.02 in   Overcast
12:15 PM 51.8 °F - 46.4 °F 82% 29.99 in 5.0 mi ENE 9.2 mph 16.1 mph 0.03 in   Overcast
12:35 PM 51.8 °F - 46.4 °F 82% 29.99 in 5.0 mi ENE 9.2 mph - 0.03 in   Overcast
12:55 PM 51.8 °F - 46.4 °F 82% 29.99 in 3.0 mi East 6.9 mph - 0.06 in   Overcast
1:15 PM 51.8 °F - 46.4 °F 82% 29.97 in 2.5 mi East 9.2 mph - 0.07 in   Overcast
1:35 PM 51.8 °F - 48.2 °F 88% 29.96 in 2.0 mi East 9.2 mph - 0.10 in   Overcast
1:55 PM 51.8 °F - 48.2 °F 88% 29.93 in 2.5 mi ENE 10.4 mph - 0.12 in   Overcast
2:15 PM 51.8 °F - 48.2 °F 88% 29.93 in 2.5 mi NE 9.2 mph - N/A   Overcast
2:35 PM 51.8 °F - 46.4 °F 82% 29.88 in 1.8 mi NNE 16.1 mph - 0.13 in   Overcast
3:15 PM 51.8 °F - 46.4 °F 82% 29.93 in 2.0 mi North 13.8 mph 19.6 mph 0.47 in Thunderstorm Thunderstorm
3:35 PM 50.0 °F - 46.4 °F 87% 29.93 in 2.0 mi North 23.0 mph - 0.85 in   Overcast
3:55 PM 48.2 °F - 44.6 °F 87% 29.91 in 3.0 mi North 23.0 mph 32.2 mph 0.89 in   Overcast
4:15 PM 48.2 °F - 44.6 °F 87% 29.90 in 2.0 mi NNE 24.2 mph 32.2 mph N/A   Overcast
4:35 PM 48.2 °F - 44.6 °F 87% 29.91 in 1.5 mi NNE 25.3 mph 34.5 mph N/A   Overcast
4:55 PM 48.2 °F - 44.6 °F 87% 29.90 in 0.5 mi NNE 23.0 mph 29.9 mph N/A   Overcast
5:15 PM 48.2 °F - 44.6 °F 87% 29.91 in 2.0 mi NNE 24.2 mph 31.1 mph 0.01 in   Overcast
5:55 PM 46.4 °F 39.5 °F 42.8 °F 87% 29.91 in 4.0 mi NE 17.3 mph 25.3 mph 0.01 in   Overcast
6:15 PM 46.4 °F 39.0 °F 42.8 °F 87% 29.90 in 6.0 mi NE 19.6 mph 25.3 mph 0.01 in   Overcast
6:35 PM 46.4 °F 40.7 °F 42.8 °F 87% 29.91 in 6.0 mi ENE 12.7 mph 20.7 mph 0.01 in   Overcast
6:55 PM 46.4 °F 40.7 °F 42.8 °F 87% 29.90 in 7.0 mi ENE 12.7 mph 23.0 mph 0.01 in   Overcast
7:15 PM 46.4 °F 40.7 °F 42.8 °F 87% 29.91 in 7.0 mi NNE 12.7 mph - 0.01 in Thunderstorm Overcast
7:35 PM 46.4 °F 39.0 °F 42.8 °F 87% 29.87 in 3.0 mi NNE 19.6 mph - 0.03 in   Overcast
8:15 PM 44.6 °F 37.4 °F 42.8 °F 93% 29.91 in 2.5 mi NNE 16.1 mph 19.6 mph N/A   Overcast
8:55 PM 44.6 °F 37.8 °F 42.8 °F 93% 29.92 in 5.0 mi NNE 15.0 mph - N/A   Overcast
9:15 PM 44.6 °F 37.8 °F 42.8 °F 93% 29.92 in 2.5 mi NNE 15.0 mph - N/A   Overcast
9:35 PM 44.6 °F 37.8 °F 42.8 °F 93% 29.92 in 2.0 mi NNE 15.0 mph 20.7 mph N/A   Overcast
9:55 PM 44.6 °F 37.4 °F 42.8 °F 93% 29.91 in 2.0 mi North 16.1 mph - N/A Thunderstorm Thunderstorm
10:15 PM 44.6 °F 37.8 °F 42.8 °F 93% 29.90 in 2.0 mi NNE 15.0 mph 20.7 mph N/A   Overcast
10:35 PM 44.6 °F 37.4 °F 42.8 °F 93% 29.90 in 2.0 mi NNE 16.1 mph - N/A   Overcast
10:55 PM 44.6 °F 37.4 °F 42.8 °F 93% 29.91 in 1.5 mi NNE 16.1 mph 21.9 mph N/A   Overcast
11:15 PM 44.6 °F 37.4 °F 42.8 °F 93% 29.91 in 1.5 mi NNE 16.1 mph 21.9 mph N/A   Overcast
11:35 PM 44.6 °F 38.1 °F 42.8 °F 93% 29.91 in 1.8 mi North 13.8 mph 21.9 mph N/A   Overcast
11:55 PM 44.6 °F 37.8 °F 42.8 °F 93% 29.90 in 2.0 mi NNE 15.0 mph - N/A   Overcast